Location: Canazei
(46.4667°N, 11.7667°E)
Time: 07:38:25
(UTC+00:00)

Cosmos 2297 - Pass Details

Date: 21 April 2021
Orbit: 837 x 857 km, 71.0° (Epoch: 05 May)

Event Time Altitude Azimuth Distance (km) Brightness Sun altitude
Exits shadow 02:02:45 33° 193° (SSW) 1,395 4.4 -20.2°
Maximum altitude 02:05:23 76° 114° (ESE) 883 3.8 -19.9°
Drops below altitude 10° 02:11:06 10° 29° (NNE) 2,489 7.2 -19.2°
Sets 02:13:34 0° 28° (NNE) 3,426 8.2 -18.9°
